This demonstration page uses our WeatherBlox Daily Observations layout. Learn more.

Hourly Observations for February 19, 2015

Temp ( °F °C ) Dew Point ( °F °C ) Humidity (%) Winds ( mph kmh ) Pressure ( in mb ) Visibility ( mi km ) Precip ( " mm )
12:15 am 00:15 Cloudy 18 -7.6 4 -15.3 54 54 ESE 7 11 30.45 1031 10 16.0934 0 0
12:35 am 00:35 Cloudy 19 -7.5 5 -15.1 55 55 ESE 6 9 30.42 1030 10 16.0934 0 0
12:55 am 00:55 Cloudy 18 -7.6 4 -15.4 54 54 ESE 7 11 30.45 1031 10 16.0934 0 0
1:15 am 01:15 Cloudy 18 -7.6 4 -15.3 54 54 E 12 19 30.45 1031 10 16.0934 0 0
1:35 am 01:35 Cloudy 18 -7.6 4 -15.5 54 54 SSE 7 11 30.48 1032 10 16.0934 0 0
1:55 am 01:55 Cloudy 18 -7.6 4 -15.5 54 54 SSE 7 11 30.45 1031 10 16.0934 0 0
2:15 am 02:15 Cloudy 19 -7.5 4 -15.4 54 54 SSE 9 15 30.42 1030 10 16.0934 0 0
2:35 am 02:35 Cloudy 18 -7.6 4 -15.6 53 53 SSE 8 13 30.45 1031 10 16.0934 0 0
2:55 am 02:55 Cloudy 19 -7.5 4 -15.5 53 53 SSE 10 17 30.39 1029 10 16.0934 0 0
3:15 am 03:15 Cloudy 18 -7.6 5 -15 56 56 SE 8 13 30.42 1030 10 16.0934 0 0
3:35 am 03:35 Cloudy 18 -7.7 5 -15.2 55 55 SSE 8 13 30.42 1030 10 16.0934 0 0
3:55 am 03:55 Cloudy 18 -8 4 -15.3 56 56 SSE 8 13 30.42 1030 10 16.0934 0 0
4:15 am 04:15 Cloudy 18 -8 5 -15 58 58 SE 8 13 30.42 1030 10 16.0934 0 0
4:35 am 04:35 Cloudy 17 -8.1 5 -15.2 57 57 SSE 10 17 30.39 1029 10 16.0934 0 0
4:55 am 04:55 Mostly Cloudy 17 -8.5 5 -15.2 59 59 SSE 9 15 30.39 1029 10 16.0934 0 0
5:15 am 05:15 Mostly Cloudy 16 -8.7 4 -15.3 59 59 SE 9 15 30.39 1029 10 16.0934 0 0
5:35 am 05:35 Cloudy 17 -8.3 5 -15 59 59 SE 9 15 30.39 1029 10 16.0934 0 0
5:55 am 05:55 Cloudy 17 -8.2 4 -15.4 57 57 SE 12 19 30.39 1029 10 16.0934 0 0
6:15 am 06:15 Cloudy 17 -8.2 4 -15.7 55 55 SE 13 20 30.36 1028 10 16.0934 0 0
6:35 am 06:35 Cloudy 17 -8.2 4 -15.8 55 55 SE 12 19 30.36 1028 10 16.0934 0 0
6:55 am 06:55 Cloudy 17 -8.2 3 -16 54 54 SSE 14 22 30.36 1028 10 16.0934 0 0
7:15 am 07:15 Cloudy 17 -8.2 3 -16 54 54 SE 9 15 30.3 1026 10 16.0934 0 0
7:35 am 07:35 Mostly Cloudy 17 -8.3 3 -16 54 54 SE 10 17 30.3 1026 10 16.0934 0 0
7:55 am 07:55 Partly Cloudy 17 -8.5 3 -16.1 55 55 SSE 9 15 30.3 1026 10 16.0934 0 0
8:15 am 08:15 Sunny 17 -8.3 3 -15.9 55 55 SSE 13 20 30.3 1026 10 16.0934 0 0
8:35 am 08:35 Sunny 19 -7.5 4 -15.5 53 53 SSE 14 22 30.3 1026 10 16.0934 0 0
8:55 am 08:55 Sunny 20 -6.5 4 -15.3 50 50 SE 13 20 30.3 1026 10 16.0934 0 0
9:15 am 09:15 Sunny 21 -6.2 5 -15.2 49 49 SE 14 22 30.3 1026 10 16.0934 0 0
9:35 am 09:35 Sunny 22 -5.8 4 -15.4 47 47 SSE 14 22 30.3 1026 10 16.0934 0 0
9:55 am 09:55 Sunny 22 -5.4 4 -15.5 45 45 SE 18 30 30.27 1025 10 16.0934 0 0
10:15 am 10:15 Sunny 23 -4.8 4 -15.3 44 44 SE 18 30 30.27 1025 10 16.0934 0 0
10:35 am 10:35 Sunny 25 -4.1 5 -15.1 42 42 SE 21 33 30.27 1025 10 16.0934 0 0
10:55 am 10:55 Sunny 25 -4 5 -15.1 42 42 SSE 20 31 30.27 1025 10 16.0934 0 0
11:15 am 11:15 Sunny 26 -3.5 5 -14.8 42 42 SSE 18 30 30.27 1025 10 16.0934 0 0
11:35 am 11:35 Sunny 27 -2.8 6 -14.6 40 40 SSE 20 31 30.27 1025 10 16.0934 0 0
11:55 am 11:55 Mostly Cloudy 28 -2.5 6 -14.2 41 41 S 17 28 30.24 1024 10 16.0934 0 0
12:15 pm 12:15 Cloudy 28 -2.5 6 -14.2 41 41 SSE 16 26 30.24 1024 10 16.0934 0 0
12:35 pm 12:35 Mostly Cloudy 28 -2.5 7 -13.9 42 42 SSE 18 30 30.21 1023 10 16.0934 0 0
12:55 pm 12:55 Partly Cloudy 28 -2.1 8 -13.5 42 42 S 18 30 30.21 1023 10 16.0934 0 0
1:15 pm 13:15 Mostly Cloudy 27 -2.8 8 -13.6 44 44 SSE 16 26 30.21 1023 10 16.0934 0 0
1:35 pm 13:35 Mostly Cloudy 28 -2.3 8 -13.2 43 43 S 16 26 30.18 1022 10 16.0934 0 0
1:55 pm 13:55 Partly Cloudy 29 -1.7 8 -13.2 42 42 S 15 24 30.18 1022 10 16.0934 0 0
2:15 pm 14:15 Partly Cloudy 29 -1.7 8 -13.4 41 41 SSE 13 20 30.18 1022 10 16.0934 0 0
2:35 pm 14:35 Partly Cloudy 31 -0.8 8 -13.1 39 39 SSE 16 26 30.15 1021 10 16.0934 0 0
2:55 pm 14:55 Sunny 32 -0.1 8 -13.4 36 36 SSE 16 26 30.12 1020 10 16.0934 0 0
3:15 pm 15:15 Sunny 32 0.1 8 -13.2 36 36 SSE 13 20 30.12 1020 10 16.0934 0 0
3:35 pm 15:35 Sunny 33 0.3 8 -13.2 36 36 SSE 14 22 30.09 1019 10 16.0934 0 0
3:55 pm 15:55 Sunny 33 0.7 9 -13 35 35 SSE 16 26 30.09 1019 10 16.0934 0 0
4:15 pm 16:15 Sunny 33 0.6 9 -12.9 36 36 SSE 17 28 30.09 1019 10 16.0934 0 0
4:35 pm 16:35 Sunny 33 0.6 9 -12.7 37 37 SSE 17 28 30.09 1019 10 16.0934 0 0
4:55 pm 16:55 Sunny 33 0.4 9 -13 36 36 SSE 17 28 30.06 1018 10 16.0934 0 0
5:15 pm 17:15 Sunny 32 0 9 -12.8 38 38 SSE 15 24 30.06 1018 10 16.0934 0 0
5:35 pm 17:35 Sunny 31 -0.6 9 -12.9 39 39 SE 15 24 30.12 1020 10 16.0934 0 0
5:55 pm 17:55 Sunny 30 -1.2 9 -12.6 42 42 SE 13 20 30.09 1019 10 16.0934 0 0
6:15 pm 18:15 Sunny 28 -2.1 9 -12.6 45 45 SE 9 15 30.09 1019 10 16.0934 0 0
6:35 pm 18:35 Clear 25 -3.7 9 -12.8 50 50 ESE 8 13 30.15 1021 10 16.0934 0 0
6:55 pm 18:55 Clear 22 -5.3 9 -12.8 56 56 SE 8 13 30.15 1021 10 16.0934 0 0
7:15 pm 19:15 Clear 24 -4.6 10 -12.5 54 54 SE 9 15 30.15 1021 10 16.0934 0 0
7:35 pm 19:35 Clear 22 -5.3 9 -12.6 57 57 SE 10 17 30.15 1021 10 16.0934 0 0
7:55 pm 19:55 Clear 23 -4.9 10 -12.1 57 57 SE 12 19 30.15 1021 10 16.0934 0 0
8:15 pm 20:15 Clear 23 -5 10 -12.1 58 58 SE 12 19 30.15 1021 10 16.0934 0 0
8:35 pm 20:35 Clear 22 -5.6 10 -12 61 61 SE 9 15 30.15 1021 10 16.0934 0 0
8:55 pm 20:55 Clear 21 -5.9 10 -12 62 62 SE 9 15 30.15 1021 10 16.0934 0 0
9:15 pm 21:15 Clear 21 -6.1 11 -11.8 64 64 SE 10 17 30.12 1020 10 16.0934 0 0
9:35 pm 21:35 Clear 20 -6.5 11 -11.7 67 67 SSE 9 15 30.12 1020 10 16.0934 0 0
9:55 pm 21:55 Clear 20 -6.6 11 -11.5 68 68 SSE 7 11 30.15 1021 10 16.0934 0 0
10:15 pm 22:15 Clear 20 -6.9 11 -11.6 70 70 SSE 9 15 30.15 1021 10 16.0934 0 0
10:35 pm 22:35 Clear 19 -7 11 -11.5 71 71 SSE 8 13 30.15 1021 10 16.0934 0 0
10:55 pm 22:55 Clear 20 -6.8 11 -11.5 70 70 SSE 10 17 30.12 1020 10 16.0934 0 0
11:15 pm 23:15 Clear 20 -6.7 11 -11.5 69 69 S 12 19 30.12 1020 10 16.0934 0 0
11:35 pm 23:35 Clear 19 -7 12 -11.2 72 72 S 9 15 30.12 1020 10 16.0934 0 0
11:55 pm 23:55 Clear 19 -7.1 12 -11.2 73 73 S 9 15 30.12 1020 10 16.0934 0 0

Powered by AerisWeather